Flag for U.S.A. Weather past 2 weeks in San Jose, California, U.S.A.

38 °F


Feels Like: 38 °F
Forecast: 34 / 56 °F
Wind: No wind

Location: San Jose International Airport

Current Time: Nov 29, 2015 at 1:42:43 AM

Latest Report: Nov 29, 2015 at 12:53 AM

Visibility: N/A

Pressure: 30.16 "Hg

Humidity: 70%

Dew point: 29 °F

Location of San JoseLocation

Historic Weather in San Jose — Graph


San Jose temperature yesterday

Maximum temperature yesterday: 57 °F (at 2:53 PM)
Minimum temperature yesterday: 31 °F (at 5:53 AM)
Average temperature yesterday: 44 °F

Past Weeks' High & Low Weather Summary

High71 °F (Nov 20, 12:53 PM)100% (Nov 15, 7:53 AM)30.36 "Hg (Nov 15, 7:53 AM)
Low31 °F (Nov 28, 5:53 AM)27% (Nov 27, 5:53 PM)29.79 "Hg (Nov 15, 3:53 AM)
Average52 °F70%30.06 "Hg
* Reported Nov 13 11:53 PM — Nov 28 11:53 PM, San Jose, Weather by CustomWeather, © 2015

Note: Actual official high and low records may vary slightly from our data, if they occured in-between our weather recording intervals... More about our weather records


San Jose weather history for previous 24 hours

Time TempWeatherWind HumidityBarometerVisibility
11:53 PM
Sat, Nov 28
39 °FClear.No wind67%30.16 "Hg10 mi
10:53 PM40 °FClear.No wind65%30.15 "Hg10 mi
9:53 PM41 °FClear.5 mph62%30.14 "Hg10 mi
8:53 PM43 °FClear.3 mph60%30.14 "Hg10 mi
7:53 PM45 °FClear.3 mph56%30.12 "Hg10 mi
6:53 PM48 °FClear.5 mph46%30.11 "Hg10 mi
5:53 PM51 °FClear.No wind36%30.10 "Hg10 mi
4:53 PM51 °FClear.9 mph41%30.09 "Hg10 mi
3:53 PM54 °FSunny.10 mph40%30.09 "Hg10 mi
2:53 PM57 °FPassing clouds.3 mph28%30.08 "Hg10 mi
1:53 PM56 °FPassing clouds.5 mph29%30.09 "Hg10 mi
12:53 PM53 °FSunny.5 mph32%30.11 "Hg10 mi
11:53 AM51 °FSunny.No wind36%30.13 "Hg10 mi
10:53 AM49 °FSunny.No wind38%30.16 "Hg10 mi
9:53 AM46 °FPassing clouds.No wind46%30.18 "Hg10 mi
8:53 AM42 °FPassing clouds.No wind57%30.17 "Hg10 mi
7:53 AM35 °FSunny.3 mph75%30.16 "Hg10 mi
6:53 AM33 °FClear.5 mph75%30.14 "Hg10 mi
5:53 AM31 °FClear.5 mph82%30.15 "Hg10 mi
4:53 AM34 °FClear.No wind73%30.16 "HgN/A
3:53 AM35 °FClear.No wind72%30.15 "HgN/A
2:53 AM36 °FClear.No wind73%30.14 "HgN/A
1:53 AM37 °FClear.No wind67%30.14 "HgN/A
Weather by CustomWeather, © 2015

See weather overviewHow to use our weather pages